User: anonymous   Login
Location: Unspecified
(0.0000°N, 0.0000°E)
Time: 08:55:17
(UTC+00:00)
Language:

FLOCK 4H 10 - Orbit

View from above orbital plane
View from above orbital plane
View from above satellite
View from above satellite

Ground track
Ground track

The orbit is defined by the following mean orbital elements,

1 66713U          26145.63257756 +.00000000 +00000-0 +28085-3 0 00001
2 66713  97.4194 219.4998 0006150  86.9609 273.2330 15.19529479    03
Epoch (UTC): 25 May 2026 15:10:54
Eccentricity: 0.0006150
inclination: 97.4194°
perigee height: 503 km
apogee height: 511 km
right ascension of ascending node: 219.4998°
argument of perigee: 86.9609°
revolutions per day: 15.19529479
mean anomaly at epoch: 273.2330°

The dashed part of the orbit path shows where the satellite is in the earth's shadow,  

DLR